This is the latest recevied weather packets stored in our database for station/object N2UFM. If no packets are shown the sender has not sent any weather packets the latest 10 day(s).
| Time | Temp. | Humidity | Pressure | Rain* | Wind** | Luminosity | Snow |
|---|---|---|---|---|---|---|---|
| 1778144443 | 9.44° C | 97% | 1010.6 hPa | 0.25 mm | - | - | - |
| 1778144143 | 9.44° C | 97% | 1010.8 hPa | 0.25 mm | - | - | - |
| 1778143843 | 9.44° C | 97% | 1010.9 hPa | 0.25 mm | - | - | - |
| 1778143543 | 9.44° C | 97% | 1010.9 hPa | 0.51 mm | - | - | - |
| 1778143243 | 9.44° C | 97% | 1011 hPa | 0.51 mm | - | - | - |
| 1778142942 | 9.44° C | 96% | 1011 hPa | 0.25 mm | - | - | - |
| 1778142642 | 9.44° C | 96% | 1011.2 hPa | 0.25 mm | - | - | - |
| 1778142342 | 9.44° C | 96% | 1011.2 hPa | 0.25 mm | - | - | - |
| 1778142042 | 9.44° C | 96% | 1011 hPa | 0.25 mm | - | - | - |
| 1778141742 | 9.44° C | 96% | 1011.1 hPa | 0.25 mm | - | - | - |
| 1778141442 | 10° C | 96% | 1010.7 hPa | 0.25 mm | - | - | - |
| 1778141141 | 10° C | 96% | 1010.7 hPa | 0.25 mm | - | - | - |
| 1778140841 | 10° C | 96% | 1011.1 hPa | 0.25 mm | - | - | - |
| 1778140541 | 10° C | 96% | 1010.9 hPa | 0.25 mm | - | - | - |
| 1778140241 | 10° C | 96% | 1010.7 hPa | 0.51 mm | - | - | - |
| 1778139941 | 10° C | 96% | 1010.7 hPa | 0.25 mm | - | - | - |
| 1778139641 | 10° C | 96% | 1011 hPa | 0.51 mm | - | - | - |
| 1778139340 | 10° C | 96% | 1011 hPa | 0.51 mm | - | - | - |
| 1778139040 | 10.56° C | 96% | 1011 hPa | 0.76 mm | - | - | - |
| 1778138740 | 10.56° C | 96% | 1011.1 hPa | 0.76 mm | - | - | - |
| 1778138440 | 10.56° C | 96% | 1011 hPa | 1.27 mm | - | - | - |
| 1778138140 | 10.56° C | 96% | 1011.2 hPa | 1.52 mm | - | - | - |
| 1778137840 | 10.56° C | 96% | 1010.8 hPa | 2.03 mm | - | - | - |
| 1778137540 | 10.56° C | 96% | 1010.7 hPa | 3.05 mm | - | - | - |
| 1778137239 | 10.56° C | 96% | 1011 hPa | 4.32 mm | - | - | - |
* Rain latest hour (hover to see other rain measurements)
** Current wind speed in m/s (hover to see current wind gust speed)